STARLINK-3232 (50809 NORAD) Tracking and Keplerian Element Data

This shows tracking and keplerian element data for the satellite.

Feedback or suggestion? Click here.




ElementValue
Catalog50809
NameSTARLINK-3232
Epoch Orbit130
Epoch Day140.58334491
Epoch Year2022
RAAN275.0628
Inclination53.2157
Eccentricity0.00018
Argument of Perigee43.4704
Mean Anonmoly98.0066
Mean Motion15.08868928
Decay Rate-0.00041264
L11 50809U 22001G 22140.58334491 -.00041264 00000+0 -25874-2 0 9999
L22 50809 53.2157 275.0628 0001800 43.4704 98.0066 15.08868928 1306

Live tracking and technical data element details for STARLINK-3232 (NORAD 50809). STARLINK-3232 can be tracked NOW for your location showing map with azimuth and elevation plus other details from your city location.

Track the satellite on the map from your city or location and see movement details for azimuth, elevation, latitude, longitude, range, height, and movement on the map or in text.







IsCatalogInMostPopularTable: catalog: 50809, numindb: 19
Update: records affected: 1



GetName: 50809 STARLINK-3232

Hit Count: updated at: Mon, 23 May 2022 19:44:18 GMT